Schneifelwetter: Wetterstation Hallschlag, 537 m . NN
Wetterdaten: Donnerstag, 25.02.2010
Datum Zeit Temp. A. Feuchte A. Luftdruck Regen Wind Richtung Richtung Sonnenschein Helligkeit T Regen Taupunkt Windchill
25.02.2010 00:01 4,5 C 97 % 996 hPa 0,0 l/m 47,5 km/h (6 Bft) S-SW45 195 0 min 0 lux 0,00 min 4,1 C -10,4 C
25.02.2010 00:16 4,5 C 97 % 996 hPa 0,3 l/m 32,9 km/h (5 Bft) S-SW45 210 0 min 0 lux 15,00 min 4,1 C -7,8 C
25.02.2010 00:31 4,5 C 97 % 995 hPa 0,0 l/m 38,5 km/h (5 Bft) S-SW45 210 0 min 0 lux 0,00 min 4,1 C -9,0 C
25.02.2010 00:46 4,5 C 97 % 995 hPa 0,0 l/m 41,8 km/h (6 Bft) S-SW45 210 0 min 0 lux 0,00 min 4,1 C -9,6 C
25.02.2010 01:01 4,5 C 97 % 995 hPa 0,3 l/m 36,7 km/h (5 Bft) S-SW67.5 210 0 min 0 lux 15,00 min 4,1 C -8,6 C
25.02.2010 01:16 4,5 C 97 % 995 hPa 0,0 l/m 41,1 km/h (6 Bft) S-SW45 200 0 min 0 lux 0,00 min 4,1 C -9,5 C
25.02.2010 01:31 4,5 C 97 % 995 hPa 0,0 l/m 39,4 km/h (6 Bft) SW45 220 0 min 0 lux 0,00 min 4,1 C -9,2 C
25.02.2010 01:46 4,4 C 97 % 995 hPa 0,0 l/m 41,2 km/h (6 Bft) S-SW45 200 0 min 0 lux 0,00 min 4,0 C -9,6 C
25.02.2010 02:01 4,3 C 97 % 995 hPa 0,9 l/m 41,5 km/h (6 Bft) S-SW45 210 0 min 0 lux 15,00 min 3,9 C -9,8 C
25.02.2010 02:16 4,3 C 97 % 995 hPa 0,0 l/m 38,6 km/h (5 Bft) S-SW45 210 0 min 0 lux 0,00 min 3,9 C -9,3 C
25.02.2010 02:31 4,4 C 97 % 995 hPa 0,3 l/m 41,7 km/h (6 Bft) S-SW45 210 0 min 0 lux 15,00 min 4,0 C -9,7 C
25.02.2010 02:46 4,3 C 97 % 995 hPa 0,0 l/m 33,3 km/h (5 Bft) S-SW45 195 0 min 0 lux 0,00 min 3,9 C -8,2 C
25.02.2010 03:01 4,3 C 98 % 995 hPa 0,0 l/m 40,5 km/h (6 Bft) SW45 220 0 min 0 lux 0,00 min 4,0 C -9,6 C
25.02.2010 03:16 4,4 C 98 % 995 hPa 0,0 l/m 42,1 km/h (6 Bft) SW45 215 0 min 0 lux 0,00 min 4,1 C -9,8 C
25.02.2010 03:31 4,4 C 98 % 995 hPa 0,3 l/m 35,3 km/h (5 Bft) S-SW45 210 0 min 0 lux 15,00 min 4,1 C -8,5 C
25.02.2010 03:46 4,4 C 98 % 995 hPa 0,3 l/m 33,2 km/h (5 Bft) SW67.5 225 0 min 0 lux 15,00 min 4,1 C -8,0 C
25.02.2010 04:01 4,4 C 98 % 995 hPa 0,0 l/m 32,5 km/h (5 Bft) S-SW22.5 205 0 min 0 lux 0,00 min 4,1 C -7,8 C
25.02.2010 04:16 4,4 C 98 % 995 hPa 0,3 l/m 36,3 km/h (5 Bft) SW45 225 0 min 0 lux 15,00 min 4,1 C -8,7 C
25.02.2010 04:31 4,5 C 98 % 994 hPa 0,0 l/m 37,9 km/h (5 Bft) SW45 215 0 min 0 lux 0,00 min 4,2 C -8,9 C
25.02.2010 04:46 4,5 C 98 % 994 hPa 0,3 l/m 46,6 km/h (6 Bft) SW45 215 0 min 0 lux 15,00 min 4,2 C -10,3 C
25.02.2010 05:01 4,4 C 98 % 994 hPa 0,0 l/m 43,1 km/h (6 Bft) SW45 220 0 min 0 lux 0,00 min 4,1 C -9,9 C
25.02.2010 05:16 4,3 C 98 % 995 hPa 0,0 l/m 40,5 km/h (6 Bft) SW45 220 0 min 0 lux 0,00 min 4,0 C -9,6 C
25.02.2010 05:31 4,3 C 98 % 994 hPa 0,0 l/m 38,4 km/h (5 Bft) SW45 215 0 min 0 lux 0,00 min 4,0 C -9,3 C
25.02.2010 05:45 4,4 C 98 % 994 hPa 0,0 l/m 34,9 km/h (5 Bft) S-SW45 210 0 min 0 lux 0,00 min 4,1 C -8,4 C
25.02.2010 06:00 4,5 C 97 % 994 hPa 0,0 l/m 36,7 km/h (5 Bft) S-SW45 200 0 min 0 lux 0,00 min 4,1 C -8,6 C
25.02.2010 06:15 4,5 C 97 % 994 hPa 0,0 l/m 37,6 km/h (5 Bft) SW45 225 0 min 0 lux 0,00 min 4,1 C -8,8 C
25.02.2010 06:30 4,5 C 97 % 995 hPa 0,0 l/m 39,2 km/h (6 Bft) SW67.5 225 0 min 0 lux 0,00 min 4,1 C -9,1 C
25.02.2010 06:45 4,5 C 97 % 995 hPa 0,0 l/m 44,9 km/h (6 Bft) S-SW45 210 0 min 0 lux 0,00 min 4,1 C -10,1 C
25.02.2010 07:00 4,4 C 96 % 994 hPa 0,0 l/m 38,8 km/h (5 Bft) S-SW45 210 0 min 0 lux 0,00 min 3,8 C -9,2 C
25.02.2010 07:15 4,4 C 97 % 995 hPa 0,0 l/m 40,0 km/h (6 Bft) SW22.5 225 0 min 38 lux 0,00 min 4,0 C -9,4 C
25.02.2010 07:30 4,3 C 97 % 995 hPa 0,3 l/m 41,8 km/h (6 Bft) SW45 230 0 min 425 lux 15,00 min 3,9 C -9,9 C
25.02.2010 07:45 4,3 C 97 % 995 hPa 0,0 l/m 40,6 km/h (6 Bft) S-SW22.5 210 0 min 534 lux 0,00 min 3,9 C -9,7 C
25.02.2010 08:00 4,4 C 97 % 995 hPa 0,0 l/m 44,8 km/h (6 Bft) SW45 225 0 min 1,18 klux 0,00 min 4,0 C -10,2 C
25.02.2010 08:15 4,5 C 97 % 995 hPa 0,0 l/m 34,6 km/h (5 Bft) S-SW45 200 0 min 4,41 klux 0,00 min 4,1 C -8,2 C
25.02.2010 08:30 4,5 C 96 % 995 hPa 0,0 l/m 33,4 km/h (5 Bft) SW45 220 0 min 2,77 klux 0,00 min 3,9 C -7,9 C
25.02.2010 08:46 4,5 C 96 % 995 hPa 0,0 l/m 33,3 km/h (5 Bft) SW45 220 0 min 5,68 klux 0,00 min 3,9 C -7,9 C
25.02.2010 09:01 4,7 C 96 % 996 hPa 0,0 l/m 32,5 km/h (5 Bft) S-SW45 205 0 min 6,06 klux 0,00 min 4,1 C -7,4 C
25.02.2010 09:15 4,9 C 96 % 996 hPa 0,0 l/m 37,0 km/h (5 Bft) SW22.5 225 0 min 11,2 klux 0,00 min 4,3 C -8,1 C
25.02.2010 09:30 5,1 C 96 % 996 hPa 0,0 l/m 35,5 km/h (5 Bft) SW45 225 0 min 12,7 klux 0,00 min 4,5 C -7,5 C
25.02.2010 09:45 5,2 C 95 % 996 hPa 0,0 l/m 39,8 km/h (6 Bft) SW67.5 215 0 min 12,8 klux 0,00 min 4,5 C -8,2 C
25.02.2010 10:00 5,1 C 95 % 996 hPa 0,0 l/m 37,3 km/h (5 Bft) SW67.5 225 0 min 9,1 klux 0,00 min 4,4 C -7,9 C
25.02.2010 10:15 4,9 C 95 % 996 hPa 0,0 l/m 42,2 km/h (6 Bft) SW45 220 0 min 10,8 klux 0,00 min 4,2 C -9,0 C
25.02.2010 10:31 5,2 C 94 % 996 hPa 0,0 l/m 42,5 km/h (6 Bft) SW67.5 225 0 min 11,4 klux 0,00 min 4,3 C -8,6 C
25.02.2010 10:46 5,2 C 94 % 996 hPa 0,0 l/m 38,7 km/h (5 Bft) W-SW45 240 0 min 9,6 klux 0,00 min 4,3 C -8,0 C
25.02.2010 11:01 5,2 C 94 % 996 hPa 0,0 l/m 32,9 km/h (5 Bft) SW45 230 0 min 9,8 klux 0,00 min 4,3 C -6,8 C
25.02.2010 11:15 5,5 C 94 % 996 hPa 0,0 l/m 35,1 km/h (5 Bft) SW45 225 14 min 35,0 klux 0,00 min 4,6 C -6,8 C
25.02.2010 11:30 6,0 C 92 % 996 hPa 0,0 l/m 35,4 km/h (5 Bft) SW67.5 225 0 min 18,4 klux 0,00 min 4,8 C -6,2 C
25.02.2010 11:45 5,9 C 92 % 996 hPa 0,0 l/m 31,8 km/h (5 Bft) S-SW45 210 0 min 20,5 klux 0,00 min 4,7 C -5,5 C
25.02.2010 12:00 6,0 C 91 % 996 hPa 0,0 l/m 26,7 km/h (4 Bft) SW45 215 0 min 15,3 klux 0,00 min 4,6 C -4,1 C
25.02.2010 12:16 5,6 C 91 % 996 hPa 0,0 l/m 26,4 km/h (4 Bft) SW45 230 0 min 8,07 klux 0,00 min 4,2 C -4,6 C
25.02.2010 12:31 5,6 C 92 % 996 hPa 0,0 l/m 26,5 km/h (4 Bft) SW22.5 215 0 min 12,0 klux 0,00 min 4,4 C -4,6 C
25.02.2010 12:46 5,6 C 91 % 996 hPa 0,0 l/m 34,9 km/h (5 Bft) S-SW45 205 0 min 9,5 klux 0,00 min 4,2 C -6,7 C
25.02.2010 13:00 5,7 C 92 % 996 hPa 0,0 l/m 17,7 km/h (3 Bft) S-SW45 205 0 min 14,5 klux 0,00 min 4,5 C -1,3 C
25.02.2010 13:15 6,3 C 91 % 996 hPa 0,0 l/m 23,2 km/h (4 Bft) S-SW45 205 0 min 24,1 klux 0,00 min 4,9 C -2,6 C
25.02.2010 13:30 6,6 C 89 % 996 hPa 0,0 l/m 34,0 km/h (5 Bft) S45 185 0 min 20,4 klux 0,00 min 4,9 C -5,0 C
25.02.2010 13:45 6,6 C 89 % 995 hPa 0,0 l/m 26,3 km/h (4 Bft) S-SW22.5 195 15 min 27,9 klux 0,00 min 4,9 C -3,2 C
25.02.2010 14:01 6,5 C 90 % 995 hPa 0,0 l/m 27,3 km/h (4 Bft) S-SW45 205 0 min 17,7 klux 0,00 min 5,0 C -3,6 C
25.02.2010 14:16 6,3 C 89 % 995 hPa 0,0 l/m 24,2 km/h (4 Bft) S-SW45 205 0 min 20,0 klux 0,00 min 4,6 C -2,9 C
25.02.2010 14:31 6,7 C 89 % 995 hPa 0,0 l/m 21,4 km/h (4 Bft) S-SW45 205 0 min 21,3 klux 0,00 min 5,0 C -1,5 C
25.02.2010 14:45 7,0 C 87 % 995 hPa 0,0 l/m 21,1 km/h (4 Bft) S22.5 190 0 min 23,5 klux 0,00 min 5,0 C -1,0 C
25.02.2010 15:00 7,1 C 87 % 995 hPa 0,0 l/m 26,9 km/h (4 Bft) S-SW45 200 0 min 21,3 klux 0,00 min 5,1 C -2,6 C
25.02.2010 15:15 6,7 C 87 % 994 hPa 0,0 l/m 23,4 km/h (4 Bft) S45 190 0 min 12,8 klux 0,00 min 4,7 C -2,1 C
25.02.2010 15:30 6,6 C 87 % 994 hPa 0,0 l/m 16,5 km/h (3 Bft) S22.5 170 0 min 11,3 klux 0,00 min 4,6 C 0,3 C
25.02.2010 15:46 6,4 C 88 % 994 hPa 0,0 l/m 13,1 km/h (3 Bft) S-SO22.5 165 0 min 9,6 klux 0,00 min 4,6 C 1,7 C
25.02.2010 16:01 6,3 C 88 % 993 hPa 0,0 l/m 13,8 km/h (3 Bft) S22.5 175 0 min 7,30 klux 0,00 min 4,5 C 1,3 C
25.02.2010 16:15 6,3 C 89 % 993 hPa 0,0 l/m 16,3 km/h (3 Bft) S22.5 185 0 min 7,54 klux 0,00 min 4,6 C 0,0 C
25.02.2010 16:30 6,0 C 89 % 993 hPa 0,0 l/m 15,0 km/h (3 Bft) S-SO22.5 165 0 min 5,69 klux 0,00 min 4,3 C 0,3 C
25.02.2010 16:45 6,0 C 89 % 993 hPa 0,0 l/m 18,8 km/h (3 Bft) S-SO22.5 160 0 min 5,32 klux 0,00 min 4,3 C -1,4 C
25.02.2010 17:00 5,9 C 90 % 993 hPa 0,0 l/m 17,6 km/h (3 Bft) S22.5 175 0 min 3,30 klux 0,00 min 4,4 C -1,0 C
25.02.2010 17:16 5,6 C 90 % 993 hPa 0,3 l/m 19,8 km/h (3 Bft) S-SO22.5 165 0 min 2,38 klux 16,00 min 4,1 C -2,3 C
25.02.2010 17:31 5,3 C 92 % 992 hPa 0,0 l/m 16,6 km/h (3 Bft) S22.5 170 0 min 1,50 klux 0,00 min 4,1 C -1,3 C
25.02.2010 17:46 5,1 C 93 % 992 hPa 0,3 l/m 15,1 km/h (3 Bft) S22.5 175 0 min 914 lux 15,00 min 4,1 C -0,9 C
25.02.2010 18:00 4,9 C 94 % 992 hPa 0,3 l/m 17,7 km/h (3 Bft) S45 175 0 min 473 lux 14,00 min 4,0 C -2,3 C
25.02.2010 18:15 4,8 C 95 % 992 hPa 0,3 l/m 13,1 km/h (3 Bft) S-SO45 160 0 min 180 lux 15,00 min 4,1 C -0,1 C
25.02.2010 18:30 4,8 C 96 % 992 hPa 0,3 l/m 19,8 km/h (3 Bft) S22.5 170 0 min 75 lux 15,00 min 4,2 C -3,4 C
25.02.2010 18:45 4,8 C 97 % 992 hPa 0,0 l/m 20,4 km/h (4 Bft) S45 190 0 min 7 lux 0,00 min 4,4 C -3,6 C
25.02.2010 19:01 4,8 C 97 % 992 hPa 0,0 l/m 20,8 km/h (4 Bft) S-SW45 195 0 min 0 lux 0,00 min 4,4 C -3,7 C
25.02.2010 19:16 4,9 C 98 % 991 hPa 0,0 l/m 18,1 km/h (3 Bft) S22.5 175 0 min 0 lux 0,00 min 4,6 C -2,5 C
25.02.2010 19:31 4,9 C 98 % 991 hPa 0,0 l/m 21,9 km/h (4 Bft) S22.5 170 0 min 0 lux 0,00 min 4,6 C -4,0 C
25.02.2010 19:45 5,2 C 98 % 991 hPa 0,0 l/m 22,1 km/h (4 Bft) S22.5 185 0 min 0 lux 0,00 min 4,9 C -3,7 C
25.02.2010 20:00 5,2 C 99 % 991 hPa 0,0 l/m 26,3 km/h (4 Bft) S22.5 170 0 min 0 lux 0,00 min 5,1 C -5,1 C
25.02.2010 20:15 5,2 C 99 % 991 hPa 0,0 l/m 29,3 km/h (5 Bft) S22.5 175 0 min 0 lux 0,00 min 5,1 C -5,9 C
25.02.2010 20:30 5,2 C 99 % 990 hPa 0,0 l/m 28,9 km/h (5 Bft) S22.5 170 0 min 0 lux 0,00 min 5,1 C -5,8 C
25.02.2010 20:46 5,3 C 99 % 990 hPa 0,0 l/m 31,3 km/h (5 Bft) S-SW45 200 0 min 0 lux 0,00 min 5,2 C -6,3 C
25.02.2010 21:01 5,4 C 99 % 990 hPa 0,0 l/m 27,5 km/h (4 Bft) S22.5 190 0 min 0 lux 0,00 min 5,3 C -5,1 C
25.02.2010 21:15 5,6 C 99 % 990 hPa 0,0 l/m 26,6 km/h (4 Bft) S-SW45 205 0 min 0 lux 0,00 min 5,5 C -4,6 C
25.02.2010 21:30 5,8 C 99 % 990 hPa 0,0 l/m 24,8 km/h (4 Bft) S-SW45 200 0 min 0 lux 0,00 min 5,7 C -3,8 C
25.02.2010 21:45 5,9 C 99 % 990 hPa 0,0 l/m 26,4 km/h (4 Bft) S-SW45 200 0 min 0 lux 0,00 min 5,8 C -4,1 C
25.02.2010 22:00 5,9 C 99 % 990 hPa 0,0 l/m 19,8 km/h (3 Bft) S-SW45 200 0 min 0 lux 0,00 min 5,8 C -1,9 C
25.02.2010 22:15 6,0 C 99 % 990 hPa 0,0 l/m 20,1 km/h (4 Bft) S45 190 0 min 0 lux 0,00 min 5,9 C -1,9 C
25.02.2010 22:31 6,1 C 99 % 990 hPa 0,0 l/m 19,2 km/h (3 Bft) S-SW45 195 0 min 0 lux 0,00 min 6,0 C -1,4 C
25.02.2010 22:46 6,1 C 99 % 990 hPa 0,0 l/m 15,7 km/h (3 Bft) S22.5 180 0 min 0 lux 0,00 min 6,0 C 0,1 C
25.02.2010 23:00 6,2 C 99 % 990 hPa 0,0 l/m 20,5 km/h (4 Bft) S-SW45 195 0 min 0 lux 0,00 min 6,1 C -1,8 C
25.02.2010 23:15 6,3 C 99 % 990 hPa 0,0 l/m 19,2 km/h (3 Bft) S45 190 0 min 0 lux 0,00 min 6,2 C -1,2 C
25.02.2010 23:30 6,4 C 99 % 990 hPa 0,0 l/m 21,0 km/h (4 Bft) S-SW45 205 0 min 0 lux 0,00 min 6,3 C -1,7 C
25.02.2010 23:45 6,4 C 99 % 990 hPa 0,0 l/m 20,1 km/h (4 Bft) S-SW45 195 0 min 0 lux 0,00 min 6,3 C -1,4 C
_ Min-Zeit 02:01 14:45 20:30 - 15:46 - - - - - 07:00 00:01
Minimum _ 4,3 C 87 % 990 hPa - 13,1 km/h (3 Bft) - - - - - 3,8 C -10,4 C
_ Max-Zeit 15:00 20:00 00:01 02:01 00:01 - - 13:45 11:15 17:16 23:30 15:46
Maximum _ 7,1 C 99 % 996 hPa 0,9 l/m 47,5 km/h
S-SW (6 Bft)
- - 15 min 35,0 klux 16,00 min 6,3 C 1,7 C
Durchschnitt _ 5,2 C 95 % 994 hPa #4,8 l/m 30,2 km/h (5 Bft) S-SW - #29 min. 5,07 klux #3:30 h 4,5 C -5,7 C